Total_Precipitation_Accumulation
0.00 0.00 0.01 0.02 0.04 0.04 0.04 0.07 0.17 0.22 0.17 0.16 0.20 0.31 0.43 0.59 0.64 0.58 0.66 0.86 0.86 0.86 0.96 1.12 1.57 2.01 2.39 2.85 3.12 3.08 2.85 2.86 2.98 3.09 2.89 3.04 3.29 3.58 3.80 3.71 3.61 3.58 3.53 3.48
0.00 0.00 0.01 0.02 0.06 0.03 0.04 0.06 0.12 0.18 0.13 0.13 0.22 0.42 0.59 0.66 0.79 0.77 0.78 0.96 0.90 0.86 0.99 1.21 1.59 1.88 2.31 2.69 2.84 3.08 3.14 3.12 2.96 3.29 3.53 3.75 4.04 4.18 4.43 4.66 4.73 4.61 4.37 4.15
0.00 0.00 0.00 0.01 0.02 0.02 0.02 0.04 0.08 0.13 0.11 0.13 0.27 0.63 0.78 0.90 0.90 0.95 0.99 1.14 1.11 1.11 1.22 1.42 1.63 1.80 2.10 2.49 2.74 3.03 3.29 3.33 3.24 3.68 4.23 4.64 4.90 4.89 4.95 5.00 5.08 5.01 4.59 4.23
0.00 0.00 0.00 0.00 0.00 0.01 0.02 0.02 0.05 0.08 0.10 0.20 0.26 0.61 0.90 1.03 1.11 1.04 1.09 1.12 1.24 1.13 1.12 1.32 1.53 1.88 1.98 2.26 2.53 2.78 3.11 3.48 3.78 4.21 4.73 5.28 5.55 5.67 5.57 5.27 5.04 4.71 4.28 3.90
0.00 0.00 0.00 0.00 0.00 0.01 0.02 0.01 0.04 0.07 0.10 0.19 0.25 0.46 0.85 1.08 1.11 1.11 1.14 1.12 1.16 1.10 1.02 1.12 1.25 1.54 1.81 2.06 2.30 2.59 2.91 3.32 3.96 4.76 5.33 5.71 5.97 5.93 5.52 5.06 4.49 4.05 3.70 3.39
0.00 0.00 0.00 0.01 0.00 0.01 0.01 0.01 0.05 0.08 0.13 0.30 0.25 0.42 0.87 1.11 1.14 1.19 1.16 1.17 1.18 1.14 1.10 1.11 1.16 1.37 1.60 1.75 1.98 2.30 2.73 3.06 3.60 4.32 4.94 5.26 5.49 5.44 5.09 4.47 3.93 3.54 3.15 2.84
0.01 0.01 0.01 0.01 0.01 0.01 0.01 0.03 0.14 0.28 0.32 0.32 0.26 0.46 0.91 1.08 1.15 1.21 1.25 1.29 1.24 1.19 1.17 1.14 1.11 1.21 1.35 1.48 1.70 1.92 2.27 2.73 3.09 3.47 4.03 4.22 4.29 4.14 3.77 3.50 3.27 2.89 2.51 2.19
0.08 0.06 0.03 0.01 0.01 0.01 0.01 0.03 0.18 0.35 0.39 0.44 0.50 0.80 1.20 1.17 1.21 1.22 1.24 1.20 1.16 1.16 1.06 1.04 1.02 1.11 1.28 1.40 1.58 1.71 1.92 2.30 2.61 2.73 2.91 2.92 2.87 2.81 2.67 2.48 2.25 2.00 1.76 1.60
0.14 0.12 0.04 0.01 0.01 0.01 0.02 0.03 0.09 0.14 0.23 0.40 0.70 1.07 1.44 1.55 1.45 1.32 1.30 1.18 1.11 1.11 1.04 1.02 0.99 1.04 1.16 1.25 1.40 1.48 1.50 1.65 1.75 1.82 1.90 1.97 1.97 1.87 1.84 1.77 1.60 1.44 1.28 1.14
0.09 0.09 0.04 0.03 0.02 0.02 0.02 0.04 0.06 0.13 0.28 0.50 0.78 1.25 1.56 1.79 1.68 1.37 1.22 1.11 1.04 1.04 1.04 1.04 1.02 1.02 1.01 1.04 1.13 1.23 1.25 1.25 1.25 1.28 1.27 1.35 1.36 1.27 1.18 1.10 1.04 0.93 0.83 0.73
0.08 0.08 0.07 0.05 0.06 0.06 0.05 0.06 0.07 0.14 0.20 0.40 0.80 1.38 1.52 1.89 1.85 1.63 1.37 1.13 1.09 1.16 1.13 1.08 1.04 0.99 0.93 0.89 0.90 0.98 1.02 1.05 1.09 1.10 1.08 1.08 1.05 0.95 0.88 0.83 0.76 0.66 0.60 0.57
0.09 0.13 0.15 0.11 0.10 0.09 0.08 0.09 0.12 0.26 0.28 0.29 0.71 1.53 1.59 1.72 1.81 1.78 1.63 1.40 1.24 1.20 1.14 1.07 1.00 0.99 0.92 0.88 0.83 0.85 0.86 0.82 0.87 0.91 0.97 0.99 0.92 0.85 0.79 0.72 0.65 0.61 0.55 0.53
0.10 0.22 0.38 0.44 0.41 0.22 0.14 0.12 0.13 0.16 0.23 0.35 0.79 1.59 1.84 1.87 1.81 1.79 1.66 1.46 1.35 1.33 1.28 1.16 1.02 0.93 0.91 0.89 0.86 0.84 0.82 0.78 0.78 0.73 0.73 0.77 0.75 0.71 0.67 0.58 0.53 0.50 0.48 0.48
0.09 0.28 0.53 0.88 0.82 0.45 0.24 0.18 0.16 0.20 0.33 0.48 0.77 1.27 1.50 1.78 1.95 1.81 1.59 1.39 1.32 1.40 1.28 1.14 1.03 0.96 0.89 0.86 0.86 0.84 0.80 0.71 0.69 0.67 0.65 0.66 0.64 0.63 0.63 0.56 0.52 0.46 0.43 0.42
0.15 0.37 0.42 0.51 0.35 0.26 0.24 0.24 0.23 0.25 0.32 0.61 0.93 1.28 1.57 1.84 1.87 1.69 1.43 1.25 1.25 1.29 1.29 1.24 1.13 1.01 0.86 0.78 0.77 0.77 0.78 0.72 0.66 0.66 0.68 0.68 0.61 0.58 0.61 0.62 0.55 0.49 0.44 0.38
0.18 0.35 0.37 0.40 0.34 0.32 0.38 0.36 0.37 0.39 0.45 0.63 0.97 1.41 1.62 1.59 1.40 1.36 1.31 1.22 1.32 1.45 1.53 1.49 1.33 1.15 0.99 0.87 0.82 0.79 0.78 0.70 0.62 0.62 0.70 0.74 0.70 0.66 0.67 0.69 0.65 0.56 0.49 0.43
0.23 0.40 0.50 0.54 0.42 0.53 0.84 0.67 0.60 0.61 0.62 0.74 1.05 1.19 1.12 1.17 1.19 1.22 1.23 1.29 1.47 1.61 1.59 1.47 1.35 1.22 1.10 1.03 0.93 0.88 0.82 0.73 0.69 0.70 0.69 0.73 0.74 0.75 0.71 0.65 0.65 0.60 0.52 0.44
0.24 0.41 0.53 0.51 0.64 1.11 1.11 0.67 0.60 0.62 0.58 0.55 0.65 0.68 0.77 0.93 1.07 1.19 1.29 1.44 1.62 1.73 1.75 1.68 1.49 1.34 1.18 1.03 0.94 0.85 0.76 0.73 0.74 0.76 0.73 0.67 0.64 0.61 0.58 0.58 0.60 0.57 0.51 0.44
0.13 0.34 0.57 0.67 0.94 1.17 1.04 0.64 0.54 0.67 0.74 0.52 0.50 0.52 0.59 0.71 0.89 1.27 1.41 1.49 1.60 1.67 1.67 1.61 1.48 1.37 1.25 1.08 0.94 0.85 0.79 0.74 0.73 0.72 0.67 0.59 0.51 0.49 0.49 0.52 0.54 0.50 0.47 0.44
0.13 0.23 0.57 0.78 1.14 1.47 1.27 0.59 0.34 0.57 1.05 0.67 0.44 0.41 0.51 0.73 1.03 1.18 1.17 1.25 1.28 1.22 1.18 1.17 1.15 1.12 1.06 0.93 0.81 0.78 0.77 0.70 0.64 0.60 0.54 0.47 0.43 0.42 0.44 0.45 0.46 0.44 0.42 0.38
0.41 0.45 0.64 0.84 1.14 1.34 0.69 0.36 0.40 0.99 1.26 0.84 0.63 0.57 0.63 0.86 0.94 0.80 0.77 0.90 0.99 0.99 0.97 0.92 0.89 0.91 0.88 0.77 0.72 0.73 0.70 0.65 0.52 0.44 0.44 0.44 0.43 0.42 0.40 0.41 0.43 0.41 0.37 0.37
0.53 0.65 0.75 0.92 1.23 1.35 0.53 0.39 0.72 0.85 0.62 0.62 0.63 0.65 0.68 0.67 0.59 0.54 0.56 0.71 0.90 1.01 1.02 0.94 0.86 0.78 0.69 0.65 0.70 0.73 0.66 0.49 0.40 0.39 0.42 0.44 0.41 0.35 0.32 0.39 0.43 0.38 0.40 0.41
0.70 0.72 0.78 0.96 1.10 0.79 0.42 0.40 0.39 0.37 0.40 0.41 0.42 0.46 0.53 0.59 0.58 0.54 0.60 0.71 0.82 0.92 0.96 0.91 0.78 0.68 0.56 0.52 0.56 0.59 0.48 0.34 0.32 0.39 0.45 0.44 0.38 0.39 0.36 0.37 0.38 0.37 0.38 0.35
0.81 0.66 0.68 0.81 0.79 0.55 0.41 0.31 0.26 0.27 0.33 0.34 0.36 0.40 0.52 0.70 0.73 0.68 0.69 0.78 0.82 0.81 0.74 0.67 0.63 0.57 0.47 0.39 0.37 0.35 0.27 0.26 0.31 0.39 0.41 0.40 0.41 0.42 0.42 0.38 0.28 0.26 0.28 0.26
0.73 0.84 0.96 1.07 0.96 0.71 0.48 0.34 0.32 0.30 0.33 0.40 0.48 0.51 0.56 0.62 0.68 0.70 0.69 0.68 0.63 0.58 0.53 0.50 0.51 0.48 0.35 0.28 0.25 0.20 0.18 0.22 0.30 0.33 0.35 0.35 0.36 0.37 0.43 0.38 0.23 0.16 0.14 0.11
0.47 0.74 1.18 1.37 1.05 0.89 0.69 0.51 0.49 0.47 0.46 0.47 0.46 0.45 0.48 0.46 0.46 0.53 0.55 0.53 0.46 0.42 0.42 0.43 0.41 0.37 0.29 0.25 0.22 0.17 0.14 0.18 0.28 0.31 0.28 0.22 0.21 0.25 0.27 0.31 0.27 0.14 0.06 0.04